Regional Weather Roundup
Issued by NWS Memphis, TN

Home | Current Version | Previous Version | Text Only | Print | Product List | Glossary On
Versions: 1 2 3 4 5 6 7 8 9 10 11 12 13 14 15 16 17 18 19 20 21 22 23 24 25 26 27 28 29 30 31 32 33 34 35 36 37 38 39 40 41 42 43 44 45 46 47 48 49 50
000
ASUS44 KMEG 020710
RWRMEG
MEMPHIS CWA HOURLY WEATHER ROUNDUP
NATIONAL WEATHER SERVICE MEMPHIS TN
200 AM CDT WED SEP 02 2015

...WEST TENNESSEE...

CITY           SKY/WX    TMP DP  RH WIND       PRES   REMARKS
MEMPHIS INTL   CLOUDY    79  71  76 CALM      30.07S
NWS MEMPHIS      N/A     73 N/A N/A MISG        N/A
JACKSON        CLOUDY    71  70  96 CALM      30.08S FOG
LEXINGTON      CLEAR     70  70 100 CALM      30.08F
DYERSBURG      MOCLDY    73  72  94 CALM      30.08F
UNION CITY     CLEAR    N/A N/A N/A CALM      30.07S
PARIS          CLEAR     70  66  88 CALM      30.09F


...EASTERN ARKANSAS...

CITY           SKY/WX    TMP DP  RH WIND       PRES   REMARKS
JONESBORO      MOCLDY    72  70  93 CALM      30.07S
WEST MEMPHIS   MOCLDY    74  72  93 SE3       30.05F
BATESVILLE     CLEAR     72  70  94 CALM      30.08S
NEWPORT        PTCLDY    73  71  93 CALM      30.07F
WALNUT RIDGE   PTCLDY    72  66  83 N3        30.07F
BLYTHEVILLE    MOCLDY    75  72  90 CALM      30.07F
SEARCY         CLEAR     72  72 100 CALM      30.08S FOG
STUTTGART      CLEAR     75  66  73 CALM      30.06F
PINE BLUFF     CLEAR     71  69  93 CALM      30.06S
MONTICELLO     MOCLDY    75  71  87 CALM      30.05F


...NORTH MISSISSIPPI...

CITY           SKY/WX    TMP DP  RH WIND       PRES   REMARKS
TUPELO         CLOUDY    74  72  93 NE3       30.07S
OXFORD         CLOUDY    72  68  88 CALM      30.09S
OLIVE BRANCH   CLEAR     73  73 100 CALM      30.07F
CLARKSDALE     CLOUDY    73  73 100 CALM      30.07S
CORINTH        CLOUDY    72  70  94 CALM      30.08S FOG
GREENWOOD      CLOUDY    74  69  85 CALM      30.04F
COLUMBUS       CLOUDY    73  71  93 NE1       30.05F
STARKVILLE     FAIR      72  70  94 CALM      30.07S
GOLDEN TRIANGL CLOUDY    73  66  78 CALM      30.05F


...SOUTHEAST MISSOURI...

CITY           SKY/WX    TMP DP  RH WIND       PRES   REMARKS
WEST PLAINS    CLEAR     74  67  78 CALM      30.12F
POPLAR BLUFF   PTCLDY    69  68  96 CALM      30.06F FOG
CAPE GIRARDEAU PTCLDY    68  67  96 CALM      30.07F FOG


...NORTHWEST ALABAMA...

CITY           SKY/WX    TMP DP  RH WIND       PRES   REMARKS
MUSCLE SHOALS  MOCLDY    70  68  93 CALM      30.10F


...MIDDLE TENNESSEE...

CITY           SKY/WX    TMP DP  RH WIND       PRES   REMARKS
NASHVILLE      MOCLDY    72  67  84 CALM      30.10F
CLARKSVILLE    CLOUDY    69  67  93 CALM      30.09F
COLUMBIA       CLEAR    N/A N/A N/A CALM      30.10S


...WESTERN KENTUCKY...

CITY           SKY/WX    TMP DP  RH WIND       PRES   REMARKS
PADUCAH        MOCLDY    69  67  93 CALM      30.07F FOG
FORT CAMPBELL  CLOUDY    72  69  88 NE5       30.08F


...CENTRAL ARKANSAS...

CITY           SKY/WX    TMP DP  RH WIND       PRES   REMARKS
LITTLE ROCK    PTCLDY    76  71  85 CALM      30.06F


SKY/WX REPORTED AS FAIR MEANS FEW OR NO CLOUDS BELOW
12 THOUSAND FEET.



USA.gov is the U.S. government's official web portal to all federal, state and local government web resources and services.